This demonstration page uses our WeatherBlox Daily Observations layout. Learn more.

Left ArrowRight Arrow

Hourly Observations for May 2, 2015

Temp ( °F °C ) Dew Point ( °F °C ) Humidity (%) Winds ( mph kmh ) Pressure ( in mb ) Visibility ( mi km ) Precip ( " mm )
12:53 am 00:53 Clear 63 17.2 31 -0.6 30 30 SE 9 15 29.91 1013 10 16 0.00 0.00
1:53 am 01:53 Clear 61 16.1 33 0.6 35 35 SE 8 13 29.91 1013 10 16 0.00 0.00
2:53 am 02:53 Clear 59 15 33 0.6 38 38 SE 8 13 29.90 1013 10 16 0.00 0.00
3:53 am 03:53 Clear 60 15.6 35 1.7 39 39 ESE 9 15 29.88 1012 10 16 0.00 0.00
4:53 am 04:53 Clear 58 14.4 36 2.2 44 44 SE 10 17 29.88 1012 10 16 0.00 0.00
5:53 am 05:53 Clear 58 14.4 37 2.8 46 46 SE 10 17 29.88 1012 10 16 0.00 0.00
6:53 am 06:53 Clear 56 13.3 38 3.3 51 51 ESE 8 13 29.90 1012 10 16 0.00 0.00
7:53 am 07:53 Sunny 59 15 40 4.4 49 49 ESE 10 17 29.91 1013 10 16 0.00 0.00
8:53 am 08:53 Sunny 63 17.2 42 5.6 47 47 SE 16 26 29.93 1014 10 16 0.00 0.00
9:53 am 09:53 Sunny 68 20 44 6.7 42 42 SE 18 30 29.93 1014 10 16 0.00 0.00
10:53 am 10:53 Sunny 73 22.8 44 6.7 35 35 SSE 16 26 29.93 1013 10 16 0.00 0.00
11:53 am 11:53 Sunny 79 26.1 44 6.7 29 29 SE 17 28 29.91 1013 10 16 0.00 0.00
12:53 pm 12:53 Sunny 82 27.8 42 5.6 24 24 SE 17 28 29.89 1012 10 16 0.00 0.00
1:53 pm 13:53 Sunny 84 28.9 40 4.4 21 21 SE 17 28 29.86 1011 10 16 0.00 0.00
2:53 pm 14:53 Sunny 88 31.1 39 3.9 18 18 SE 15 24 29.83 1010 10 16 0.00 0.00
3:53 pm 15:53 Sunny 89 31.7 36 2.2 15 15 SE 14 22 29.79 1009 10 16 0.00 0.00
4:53 pm 16:53 Sunny 89 31.7 36 2.2 15 15 SSE 9 15 29.76 1008 10 16 0.00 0.00
5:53 pm 17:53 Sunny 89 31.7 36 2.2 15 15 SE 15 24 29.75 1007 10 16 0.00 0.00
6:53 pm 18:53 Sunny 87 30.6 38 3.3 18 18 SSE 17 28 29.75 1007 10 16 0.00 0.00
7:53 pm 19:53 Sunny 84 28.9 39 3.9 20 20 SE 18 30 29.75 1007 10 16 0.00 0.00
8:53 pm 20:53 Clear 79 26.1 41 5 26 26 SE 13 20 29.75 1008 10 16 0.00 0.00
9:53 pm 21:53 Clear 75 23.9 43 6.1 32 32 SE 16 26 29.77 1008 10 16 0.00 0.00
10:53 pm 22:53 Clear 73 22.8 45 7.2 37 37 SE 15 24 29.79 1009 10 16 0.00 0.00
11:53 pm 23:53 Clear 70 21.1 45 7.2 41 41 SE 16 26 29.80 1009 10 16 0.00 0.00

Powered by AerisWeather